Location: Unspecified
(50.0830°N, 0.0000°E)
Time: 08:16:24
(UTC+00:00)

N. Korean satellite - Pass Details

Date: 18 November 2019
Orbit: 456 x 506 km, 97.2° (Epoch: 09 December)

Event Time Altitude Azimuth Distance (km) Brightness Sun altitude
Rises 04:58:20 0° 27° (NNE) 2,622 10.6 -22.0°
Reaches altitude 10° 05:01:00 10° 47° (NE) 1,727 9.9 -21.6°
Maximum altitude 05:03:34 18° 91° (E) 1,307 9.7 -21.1°
Drops below altitude 10° 05:06:07 10° 135° (SE) 1,704 10.0 -20.7°
Sets 05:08:42 0° 155° (SSE) 2,573 10.7 -20.3°
